DECAYED

STARLINK-11612, 63277 (Decayed)

Orbit data source: Space-Track

STARLINK-11612, 63277 was a payload satellite owned by SpaceX/Seattle (US) in LEO that was launched on Sat, 15 Mar 2025 UTC via an FALCON 9 launch vehicle from the Air Force Eastern Test Range (AFETR). Payload-class satellites include a variety of spacecraft equipped with specific instruments for various scientific and technological missions. These include communications satellites like Starlink; space stations such as the ISS; scientific satellites like the Hubble; Earth observation satellites from companies like Planet Labs, Umbra, and HawkEye 360; GPS; miniature CubeSats for education and research; and military/defense satellites.

Not visible in the next 10 days
Identifier
63277, 2025-053N
Orbit
Decayed
Country
Flag of USUS
Related business
Manufacturer
SpaceX/Seattle
Mission
Decayed Commercial Communications
Bus & Motor
STARLINK V2MD, Unknown motor
Mass
960 kg wet, ~910 kg dry
Launch date (UTC)
2025-03-15 (1 year ago)
Launch vehicle
FALCON 9
Launch site
Air Force Eastern Test Range (AFETR)
Object type
Payload
Rocket body
Debris
Shape & HBR
Box + 2 Pan, 18.1 m
Radar Cross Section
36.964 m², Large (>1 m²)

Expand to show TLE details & history
Last TLE update: 7 months ago

TLE from 7 months ago
0 STARLINK-11612
1 63277U 25053N   25338.41691565  .05800087  16249+0  77837-2 0  9991
2 63277  42.9870 321.2433 0006963 141.6827 218.4552 16.14114723 42742
Epoch: 2025-12-04T10:00Z
TLE epoch observation values (Epoch: 2025-12-04T10:00:21.512Z)
Latitude
-0.00001°
Longitude
97.68°
Altitude
238.952 km
Speed
7.763 km/s
True Right ascension
21h 24m 58s
True Declination
0° 00' 00"
Sunlit
Object was in daylight at epoch
Visualization orbit readout
Latitude
Unknown
Longitude
Unknown
Altitude
Unknown
Speed
Unknown
Apparent Right ascension
Unknown
Apparent Declination
Unknown
Sunlit
N/A
Visualization observer readout
Local Sidereal Time
07:13:49
Azimuth
Unknown
Elevation
Unknown
Doppler factor
Unknown
Orbital elements
Apogee altitude
242.206 km
Perigee altitude
232.993 km
Semi-major axis
6,615.736 km
Eccentricity
0.0007
Inclination
42.987°
RAAN
321.2433°
Arg. of periapsis
141.6827°
True anomaly
218.40561°
Mean anomaly
218.4552°
Eccentric anomaly
218.4304°
Mean motion
4.03344 °/min
Orbital period
89.25 mins
BSTAR
0.0077837
Loading maneuver chart data...
Computing Atmospheric mass density...
Loading historical data...
Loading historical data...
Loading historical data...
Loading historical data...
Loading historical data...
Loading historical data...
Loading historical data...

Documentation

Showing up to 5 results
|